Location: Champs
(48.8539°N, 2.6040°E)
Time: 01:53:06
(UTC+00:00)

USA 308 - Pass Details

Date: 06 June 2022
Orbit: 549 x 558 km, 54.0° (Epoch: 14 June)

Event Time Altitude Azimuth Distance (km) Brightness Sun altitude
Rises 22:09:20 0° 258° (WSW) 2,723 6.5 -15.1°
Reaches altitude 10° 22:11:36 10° 263° (W) 1,832 5.7 -15.2°
Maximum altitude 22:15:42 56° 342° (NNW) 668 3.6 -15.5°
Drops below altitude 10° 22:19:49 10° 61° (ENE) 1,842 5.6 -15.7°
Sets 22:22:07 0° 66° (ENE) 2,742 6.4 -15.9°
